CW8399 Weather Reports


Display with metric or nautical units.
time (UTC)temp
F
wind
direction
speed
MPH
gust
MPH
rain 1hr
in
rain 24hr
in
rain mn
in
humidity
%
barometer
mb
20260901084819 83 0 3.0 4.0 0.00 0.00 0.00
20260901084341 83 340 3.0 4.0 0.00 0.00 0.00
20260901083833 83 0 2.0 5.0 0.00 0.00 0.00
20260901083336 83 0 2.0 5.0 0.00 0.00 0.00
20260901082832 83 343 1.0 5.0 0.00 0.00 0.00
20260901081339 84 96 1.0 2.0 0.00 0.00 0.00
20260901080830 84 96 0.0 2.0 0.00 0.00 0.00
20260901080329 84 96 0.0 3.0 0.00 0.00 0.00
20260901075828 84 136 1.0 3.0 0.00 0.00 0.00
20260901075327 85 96 2.0 2.0 0.00 0.00 0.00
20260901073832 86 322 0.0 2.0 0.00 0.00 0.00
20260901073337 86 308 0.0 4.0 0.00 0.00 0.00
20260901072838 86 0 2.0 6.0 0.00 0.00 0.00
20260901071829 86 342 3.0 7.0 0.00 0.00 0.00
20260901070823 87 359 3.0 7.0 0.00 0.00 0.00
20260901065829 87 351 3.0 6.0 0.00 0.00 0.00
20260901065329 87 0 2.0 7.0 0.00 0.00 0.00
20260901064830 87 359 2.0 7.0 0.00 0.00 0.00
20260901063825 88 0 1.0 6.0 0.00 0.00 0.00
20260901063328 88 323 3.0 8.0 0.00 0.00 0.00
20260901062829 88 0 3.0 8.0 0.00 0.00 0.00
20260901062331 88 0 3.0 8.0 0.00 0.00 0.00
20260901061832 88 0 3.0 9.0 0.00 0.00 0.00
20260901061333 89 358 3.0 9.0 0.00 0.00 0.00
20260901060825 89 359 5.0 12.0 0.00 0.00 0.00
20260901060326 89 351 6.0 12.0 0.00 0.00 0.00
20260901055832 89 344 7.0 12.0 0.00 0.00 0.00
20260901055333 89 355 2.0 9.0 0.00 0.00 0.00
20260901054835 89 352 3.0 10.0 0.00 0.00 0.00
20260901054337 89 355 3.0 13.0 0.00 0.00 0.00
20260901053334 90 0 5.0 9.0 0.00 0.00 0.00
20260901052836 90 4 3.0 10.0 0.00 0.00 0.00
20260901052337 90 359 5.0 15.0 0.00 0.00 0.00
20260901051341 90 357 8.0 17.0 0.00 0.00 0.00
20260901050834 90 350 11.0 18.0 0.00 0.00 0.00
20260901050335 90 349 6.0 18.0 0.00 0.00 0.00
20260901045837 90 337 6.0 18.0 0.00 0.00 0.00
20260901045318 90 338 8.0 18.0 0.00 0.00 0.00
20260901044825 91 333 7.0 18.0 0.00 0.00 0.00
20260901044346 91 348 9.0 18.0 0.00 0.00 0.00
20260901043839 91 351 9.0 14.0 0.00 0.00 0.00
20260901043319 91 332 7.0 14.0 0.00 0.00 0.00
20260901042822 91 338 6.0 14.0 0.00 0.00 0.00
20260901042322 91 359 6.0 13.0 0.00 0.00 0.00
20260901041825 91 357 7.0 13.0 0.00 0.00 0.00
20260901040839 92 343 9.0 23.0 0.00 0.00 0.00
20260901040320 92 353 6.0 18.0 0.00 0.00 0.00
20260901035324 92 357 8.0 13.0 0.00 0.00 0.00
20260901034826 92 357 7.0 16.0 0.00 0.00 0.00
20260901034346 92 357 8.0 16.0 0.00 0.00 0.00
20260901033839 92 349 10.0 14.0 0.00 0.00 0.00
20260901033323 92 352 8.0 12.0 0.00 0.00 0.00
20260901032824 93 0 2.0 9.0 0.00 0.00 0.00
20260901031830 93 355 3.0 6.0 0.00 0.00 0.00
20260901031333 93 346 2.0 4.0 0.00 0.00 0.00
20260901030827 93 0 2.0 4.0 0.00 0.00 0.00
20260901030329 94 0 2.0 5.0 0.00 0.00 0.00
20260901025831 94 0 2.0 6.0 0.00 0.00 0.00
20260901025332 94 0 4.0 6.0 0.00 0.00 0.00
20260901024832 94 358 3.0 6.0 0.00 0.00 0.00
20260901024334 95 0 3.0 6.0 0.00 0.00 0.00
20260901023827 95 0 3.0 5.0 0.00 0.00 0.00
20260901023326 95 0 3.0 11.0 0.00 0.00 0.00
20260901022828 95 0 4.0 11.0 0.00 0.00 0.00
20260901022335 96 0 3.0 7.0 0.00 0.00 0.00
20260901021835 96 357 3.0 11.0 0.00 0.00 0.00
20260901021337 96 0 5.0 11.0 0.00 0.00 0.00
20260901020829 97 0 7.0 13.0 0.00 0.00 0.00
20260901020331 97 0 5.0 13.0 0.00 0.00 0.00
20260901015829 97 359 4.0 11.0 0.00 0.00 0.00
20260901015329 98 0 4.0 16.0 0.00 0.00 0.00
20260901014830 98 0 6.0 16.0 0.00 0.00 0.00
20260901014331 98 359 6.0 16.0 0.00 0.00 0.00
20260901013326 99 356 8.0 17.0 0.00 0.00 0.00
20260901012828 99 0 7.0 14.0 0.00 0.00 0.00
20260901012329 99 0 8.0 14.0 0.00 0.00 0.00
20260901011830 100 359 7.0 13.0 0.00 0.00 0.00
20260901011337 100 0 8.0 17.0 0.00 0.00 0.00
20260901010830 100 0 4.0 17.0 0.00 0.00 0.00
20260901010330 100 353 10.0 17.0 0.00 0.00 0.00
20260901005831 100 0 7.0 17.0 0.00 0.00 0.00
20260901005331 100 352 9.0 14.0 0.00 0.00 0.00
20260901004832 100 0 6.0 16.0 0.00 0.00 0.00
20260901004332 100 0 8.0 18.0 0.00 0.00 0.00
20260901003822 100 359 7.0 18.0 0.00 0.00 0.00
20260901003323 100 359 6.0 17.0 0.00 0.00 0.00
20260901002824 100 356 9.0 16.0 0.00 0.00 0.00
20260901002324 100 359 7.0 13.0 0.00 0.00 0.00
20260901001328 100 355 9.0 15.0 0.00 0.00 0.00
20260901000836 100 355 5.0 19.0 0.00 0.00 0.00
20260901000321 100 359 12.0 19.0 0.00 0.00 0.00
20260831235322 101 355 4.0 14.0 0.00 0.00 0.00
20260831234346 101 353 10.0 22.0 0.00 0.00 0.00
20260831233837 101 354 16.0 22.0 0.00 0.00 0.00
20260831233337 101 337 3.0 14.0 0.00 0.00 0.00
20260831232838 100 352 4.0 8.0 0.00 0.00 0.00
20260831232319 100 359 2.0 16.0 0.00 0.00 0.00
20260831231824 100 0 5.0 17.0 0.00 0.00 0.00
20260831231346 100 344 8.0 17.0 0.00 0.00 0.00
20260831230836 101 0 8.0 17.0 0.00 0.00 0.00
20260831230336 100 346 7.0 17.0 0.00 0.00 0.00
20260831225836 100 359 6.0 11.0 0.00 0.00 0.00
20260831225319 100 346 7.0 16.0 0.00 0.00 0.00
20260831224824 100 5 10.0 16.0 0.00 0.00 0.00
20260831224344 100 342 5.0 15.0 0.00 0.00 0.00
20260831223836 101 353 9.0 16.0 0.00 0.00 0.00
20260831223337 101 353 11.0 18.0 0.00 0.00 0.00
20260831222838 101 355 8.0 18.0 0.00 0.00 0.00
20260831222320 101 337 12.0 19.0 0.00 0.00 0.00
20260831221821 101 352 14.0 19.0 0.00 0.00 0.00
20260831220837 101 352 9.0 17.0 0.00 0.00 0.00
20260831220337 101 358 8.0 17.0 0.00 0.00 0.00
20260831215837 101 358 7.0 19.0 0.00 0.00 0.00
20260831215319 101 351 6.0 19.0 0.00 0.00 0.00
20260831214822 101 0 3.0 18.0 0.00 0.00 0.00
20260831214343 101 347 8.0 18.0 0.00 0.00 0.00
20260831213834 101 0 9.0 16.0 0.00 0.00 0.00
20260831213318 101 0 5.0 17.0 0.00 0.00 0.00
20260831212838 101 351 11.0 20.0 0.00 0.00 0.00
20260831212319 101 359 10.0 20.0 0.00 0.00 0.00
20260831211821 101 355 7.0 18.0 0.00 0.00 0.00
20260831211344 101 0 6.0 18.0 0.00 0.00 0.00
20260831210836 101 347 7.0 13.0 0.00 0.00 0.00
20260831204332 100 355 8.0 13.0 0.00 0.00 0.00
20260831203824 100 352 3.0 19.0 0.00 0.00 0.00
20260831202833 100 346 12.0 19.0 0.00 0.00 0.00
20260831202332 100 359 9.0 17.0 0.00 0.00 0.00
20260831201834 100 359 10.0 15.0 0.00 0.00 0.00
20260831201326 100 3 6.0 13.0 0.00 0.00 0.00
20260831200832 99 354 7.0 13.0 0.00 0.00 0.00
20260831195338 99 352 6.0 15.0 0.00 0.00 0.00
20260831194819 98 342 4.0 13.0 0.00 0.00 0.00
20260831194342 98 356 5.0 14.0 0.00 0.00 0.00
20260831193337 98 358 5.0 12.0 0.00 0.00 0.00
20260831192838 98 0 5.0 13.0 0.00 0.00 0.00
20260831192338 98 354 5.0 14.0 0.00 0.00 0.00
20260831191838 98 357 8.0 14.0 0.00 0.00 0.00
20260831191340 97 0 6.0 13.0 0.00 0.00 0.00
20260831190832 97 355 4.0 16.0 0.00 0.00 0.00
20260831190333 97 359 5.0 16.0 0.00 0.00 0.00
20260831185834 97 359 6.0 14.0 0.00 0.00 0.00
20260831185335 96 359 6.0 10.0 0.00 0.00 0.00
20260831184820 96 345 3.0 15.0 0.00 0.00 0.00
20260831184341 96 355 5.0 15.0 0.00 0.00 0.00
20260831183833 96 356 3.0 9.0 0.00 0.00 0.00
20260831183335 96 0 3.0 14.0 0.00 0.00 0.00
20260831182836 95 3 7.0 16.0 0.00 0.00 0.00
20260831182334 95 347 9.0 16.0 0.00 0.00 0.00
20260831181338 94 359 3.0 11.0 0.00 0.00 0.00
20260831180828 94 357 6.0 12.0 0.00 0.00 0.00
20260831180330 94 358 7.0 14.0 0.00 0.00 0.00
20260831175830 94 4 4.0 14.0 0.00 0.00 0.00
20260831175333 94 359 6.0 11.0 0.00 0.00 0.00
20260831174834 93 0 7.0 14.0 0.00 0.00 0.00
20260831174334 93 347 9.0 16.0 0.00 0.00 0.00
20260831173829 93 357 6.0 16.0 0.00 0.00 0.00
20260831173330 93 352 8.0 16.0 0.00 0.00 0.00
20260831172832 92 347 6.0 15.0 0.00 0.00 0.00
20260831172332 92 0 6.0 12.0 0.00 0.00 0.00
20260831171835 92 356 6.0 13.0 0.00 0.00 0.00
20260831171337 91 359 6.0 16.0 0.00 0.00 0.00
20260831170828 91 357 7.0 16.0 0.00 0.00 0.00
20260831165832 90 0 6.0 13.0 0.00 0.00 0.00
20260831165334 90 0 7.0 13.0 0.00 0.00 0.00
20260831164834 90 0 7.0 15.0 0.00 0.00 0.00
20260831164335 89 0 8.0 15.0 0.00 0.00 0.00
20260831163829 89 351 6.0 13.0 0.00 0.00 0.00
20260831163329 88 0 5.0 16.0 0.00 0.00 0.00
20260831162835 88 355 11.0 16.0 0.00 0.00 0.00
20260831162336 88 343 7.0 12.0 0.00 0.00 0.00
20260831161836 87 353 5.0 12.0 0.00 0.00 0.00
20260831161338 87 357 6.0 12.0 0.00 0.00 0.00
20260831160337 86 359 6.0 13.0 0.00 0.00 0.00
20260831155820 86 3 4.0 11.0 0.00 0.00 0.00
20260831155319 85 356 2.0 11.0 0.00 0.00 0.00
20260831154820 85 358 3.0 9.0 0.00 0.00 0.00
20260831154343 84 0 4.0 7.0 0.00 0.00 0.00
20260831153836 84 359 3.0 6.0 0.00 0.00 0.00
20260831153336 84 0 3.0 5.0 0.00 0.00 0.00
20260831152838 83 342 3.0 7.0 0.00 0.00 0.00
20260831152322 83 353 2.0 10.0 0.00 0.00 0.00
20260831151821 82 357 3.0 11.0 0.00 0.00 0.00
20260831151343 82 355 7.0 11.0 0.00 0.00 0.00
20260831150835 82 356 5.0 9.0 0.00 0.00 0.00
20260831150337 81 1 4.0 7.0 0.00 0.00 0.00
20260831145837 81 354 5.0 7.0 0.00 0.00 0.00
20260831144823 80 357 2.0 5.0 0.00 0.00 0.00
20260831143838 79 334 1.0 4.0 0.00 0.00 0.00
20260831143337 78 0 1.0 4.0 0.00 0.00 0.00
20260831142837 78 0 2.0 3.0 0.00 0.00 0.00
20260831141824 77 0 0.0 0.0 0.00 0.00 0.00
20260831141345 77 0 0.0 0.0 0.00 0.00 0.00
20260831140835 77 0 0.0 0.0 0.00 0.00 0.00
20260831140321 77 0 0.0 0.0 0.00 0.00 0.00
20260831135326 77 0 0.0 0.0 0.00 0.00 0.00
20260831134825 76 0 0.0 0.0 0.00 0.00 0.00
20260831134348 76 0 0.0 0.0 0.00 0.00 0.00
20260831133821 76 0 0.0 0.0 0.00 0.00 0.00
20260831133322 76 0 0.0 0.0 0.00 0.00 0.00
20260831132822 76 0 0.0 0.0 0.00 0.00 0.00
20260831132322 76 0 0.0 0.0 0.00 0.00 0.00
20260831131823 77 0 0.0 0.0 0.00 0.00 0.00
20260831131344 77 0 0.0 0.0 0.00 0.00 0.00
20260831130838 77 0 0.0 0.0 0.00 0.00 0.00
20260831130338 77 0 0.0 0.0 0.00 0.00 0.00
20260831125321 77 0 0.0 1.0 0.00 0.00 0.00
20260831124826 77 0 0.0 0.0 0.00 0.00 0.00
20260831124331 77 0 0.0 0.0 0.00 0.00 0.00
20260831123821 77 0 0.0 0.0 0.00 0.00 0.00
20260831123320 77 0 0.0 0.0 0.00 0.00 0.00
20260831122822 78 0 0.0 3.0 0.00 0.00 0.00
20260831122324 78 0 0.0 3.0 0.00 0.00 0.00
20260831121824 78 0 0.0 1.0 0.00 0.00 0.00
20260831121347 78 0 0.0 4.0 0.00 0.00 0.00
20260831120322 77 4 1.0 3.0 0.00 0.00 0.00
20260831115823 77 279 1.0 2.0 0.00 0.00 0.00
20260831115323 77 165 0.0 1.0 0.00 0.00 0.00
20260831114823 77 139 0.0 1.0 0.00 0.00 0.00
20260831114348 77 266 0.0 0.0 0.00 0.00 0.00
20260831113822 78 270 0.0 0.0 0.00 0.00 0.00
20260831112824 78 294 0.0 0.0 0.00 0.00 0.00
20260831112323 78 291 0.0 0.0 0.00 0.00 0.00
20260831111827 78 269 0.0 0.0 0.00 0.00 0.00
20260831111349 78 283 0.0 1.0 0.00 0.00 0.00
20260831110821 78 339 0.0 1.0 0.00 0.00 0.00
20260831110336 78 355 0.0 1.0 0.00 0.00 0.00
20260831105836 79 4 0.0 1.0 0.00 0.00 0.00
20260831104820 79 42 0.0 1.0 0.00 0.00 0.00
20260831104342 79 53 0.0 0.0 0.00 0.00 0.00
20260831103833 79 33 0.0 0.0 0.00 0.00 0.00
20260831103333 79 13 0.0 0.0 0.00 0.00 0.00
20260831102832 79 55 0.0 0.0 0.00 0.00 0.00
20260831102333 79 54 0.0 1.0 0.00 0.00 0.00
20260831101836 80 55 0.0 1.0 0.00 0.00 0.00
20260831101336 80 5 0.0 0.0 0.00 0.00 0.00
20260831100829 80 7 0.0 0.0 0.00 0.00 0.00
20260831100327 80 54 0.0 0.0 0.00 0.00 0.00
20260831095829 80 50 0.0 0.0 0.00 0.00 0.00
20260831095329 81 52 0.0 0.0 0.00 0.00 0.00
20260831094333 81 43 0.0 2.0 0.00 0.00 0.00
20260831093825 81 61 0.0 2.0 0.00 0.00 0.00
20260831093322 81 102 0.0 2.0 0.00 0.00 0.00
20260831092325 81 129 0.0 1.0 0.00 0.00 0.00
20260831091332 81 230 0.0 0.0 0.00 0.00 0.00
20260831090825 81 234 0.0 1.0 0.00 0.00 0.00
20260831090326 82 184 0.0 1.0 0.00 0.00 0.00
20260831085829 82 9 0.0 0.0 0.00 0.00 0.00